| time (UTC) | temp C | wind direction | speed KPH | gust KPH | rain 1hr cm | rain 24hr cm | rain mn cm | humidity % | barometer mb |
| 20260507191529 | 11 | 321 | 0.0 | 16.1 | 0.00 | 0.76 | 0.03 | 46 | 1005.9 |
| 20260507190018 | 12 | 239 | 0.0 | 8.0 | 0.00 | 0.76 | 0.03 | 50 | 1005.9 |
| 20260507184517 | 12 | 219 | 0.0 | 8.0 | 0.00 | 0.99 | 0.03 | 49 | 1006.0 |
| 20260507183029 | 11 | 302 | 0.0 | 12.9 | 0.00 | 0.99 | 0.03 | 49 | 1005.9 |
| 20260507181513 | 11 | 227 | 1.6 | 20.9 | 0.00 | 0.99 | 0.03 | 57 | 1006.1 |
| 20260507180015 | 11 | 273 | 6.4 | 29.0 | 0.00 | 0.99 | 0.03 | 52 | 1006.1 |
| 20260507174508 | 10 | 236 | 1.6 | 14.5 | 0.00 | 1.32 | 0.03 | 53 | 1006.1 |
| 20260507173007 | 11 | 169 | 0.0 | 12.9 | 0.00 | 1.32 | 0.03 | 57 | 1006.1 |
| 20260507171505 | 10 | 276 | 1.6 | 16.1 | 0.00 | 1.32 | 0.03 | 59 | 1006.2 |
| 20260507170002 | 10 | 250 | 1.6 | 20.9 | 0.00 | 1.32 | 0.03 | 68 | 1006.3 |
| 20260507164600 | 9 | 217 | 0.0 | 12.9 | 0.00 | 1.55 | 0.03 | 68 | 1006.6 |
| 20260507163057 | 9 | 241 | 0.0 | 1.6 | 0.00 | 1.55 | 0.03 | 72 | 1006.7 |
| 20260507161604 | 8 | 5 | 0.0 | 3.2 | 0.00 | 1.55 | 0.03 | 73 | 1006.8 |
| 20260507160051 | 7 | 256 | 0.0 | 6.4 | 0.00 | 1.55 | 0.03 | 85 | 1007.0 |
| 20260507154550 | 7 | 176 | 0.0 | 4.8 | 0.00 | 1.75 | 0.03 | 83 | 1007.0 |
| 20260507153055 | 7 | 250 | 0.0 | 8.0 | 0.00 | 1.75 | 0.03 | 85 | 1007.1 |
| 20260507151546 | 7 | 284 | 0.0 | 12.9 | 0.00 | 1.75 | 0.03 | 88 | 1007.0 |
| 20260507150042 | 6 | 257 | 0.0 | 4.8 | 0.00 | 1.75 | 0.03 | 96 | 1007.1 |
| 20260507144536 | 6 | 269 | 0.0 | 4.8 | 0.00 | 2.01 | 0.03 | 97 | 1007.0 |
| 20260507143032 | 5 | 259 | 0.0 | 6.4 | 0.00 | 2.01 | 0.03 | 97 | 1007.3 |
| 20260507141532 | 5 | 279 | 0.0 | 0.0 | 0.00 | 2.01 | 0.03 | 97 | 1007.4 |
| 20260507140030 | 5 | 279 | 0.0 | 0.0 | 0.00 | 2.01 | 0.03 | 97 | 1007.3 |
| 20260507134531 | 5 | 136 | 0.0 | 0.0 | 0.00 | 2.24 | 0.03 | 97 | 1007.4 |
| 20260507133031 | 5 | 5 | 0.0 | 0.0 | 0.00 | 2.24 | 0.03 | 97 | 1007.5 |
| 20260507131534 | 5 | 5 | 0.0 | 0.0 | 0.00 | 2.24 | 0.03 | 97 | 1007.5 |
| 20260507130029 | 5 | 5 | 0.0 | 0.0 | 0.00 | 2.24 | 0.03 | 97 | 1007.5 |
| 20260507124529 | 5 | 5 | 0.0 | 0.0 | 0.00 | 2.29 | 0.03 | 97 | 1007.4 |
| 20260507123033 | 5 | 5 | 0.0 | 0.0 | 0.00 | 2.29 | 0.03 | 97 | 1007.6 |
| 20260507121528 | 5 | 5 | 0.0 | 0.0 | 0.00 | 2.29 | 0.03 | 97 | 1007.4 |
| 20260507120039 | 4 | 5 | 0.0 | 0.0 | 0.00 | 2.29 | 0.03 | 98 | 1007.6 |
| 20260507114525 | 4 | 5 | 0.0 | 0.0 | 0.00 | 2.29 | 0.03 | 97 | 1007.4 |
| 20260507113038 | 4 | 5 | 0.0 | 0.0 | 0.00 | 2.29 | 0.03 | 97 | 1007.5 |
| 20260507111524 | 3 | 5 | 0.0 | 0.0 | 0.00 | 2.29 | 0.03 | 97 | 1007.3 |
| 20260507110026 | 3 | 5 | 0.0 | 0.0 | 0.00 | 2.29 | 0.03 | 97 | 1007.3 |
| 20260507104522 | 3 | 5 | 0.0 | 0.0 | 0.00 | 2.29 | 0.03 | 97 | 1007.5 |
| 20260507103021 | 3 | 5 | 0.0 | 0.0 | 0.00 | 2.29 | 0.03 | 97 | 1007.4 |
| 20260507101521 | 3 | 5 | 0.0 | 0.0 | 0.00 | 2.29 | 0.03 | 97 | 1007.1 |
| 20260507100025 | 3 | 5 | 0.0 | 0.0 | 0.00 | 2.29 | 0.03 | 97 | 1007.2 |
| 20260507094516 | 3 | 5 | 0.0 | 0.0 | 0.00 | 2.31 | 0.03 | 97 | 1007.1 |
| 20260507093013 | 3 | 5 | 0.0 | 0.0 | 0.00 | 2.31 | 0.03 | 97 | 1006.8 |
| 20260507091513 | 3 | 5 | 0.0 | 0.0 | 0.00 | 2.31 | 0.03 | 97 | 1007.1 |
| 20260507090010 | 3 | 5 | 0.0 | 0.0 | 0.00 | 2.31 | 0.03 | 97 | 1007.2 |
| 20260507084511 | 3 | 5 | 0.0 | 0.0 | 0.00 | 2.34 | 0.03 | 97 | 1007.3 |
| 20260507083008 | 3 | 5 | 0.0 | 0.0 | 0.00 | 2.34 | 0.03 | 97 | 1007.1 |
| 20260507081507 | 3 | 5 | 0.0 | 0.0 | 0.00 | 2.34 | 0.03 | 97 | 1006.9 |
| 20260507080006 | 3 | 5 | 0.0 | 0.0 | 0.00 | 2.34 | 0.03 | 97 | 1006.9 |
| 20260507074506 | 3 | 5 | 0.0 | 0.0 | 0.00 | 2.49 | 0.03 | 97 | 1006.8 |
| 20260507073005 | 3 | 5 | 0.0 | 0.0 | 0.00 | 2.49 | 0.03 | 97 | 1006.7 |
| 20260507071504 | 3 | 5 | 0.0 | 0.0 | 0.00 | 2.49 | 0.03 | 97 | 1006.8 |
| 20260507070008 | 3 | 5 | 0.0 | 0.0 | 0.00 | 2.49 | 0.03 | 97 | 1006.7 |
| 20260507064502 | 4 | 5 | 0.0 | 0.0 | 0.00 | 2.59 | 0.03 | 97 | 1006.7 |
| 20260507063002 | 4 | 5 | 0.0 | 0.0 | 0.00 | 2.59 | 0.03 | 97 | 1006.8 |
| 20260507061502 | 4 | 5 | 0.0 | 0.0 | 0.03 | 2.59 | 0.03 | 97 | 1006.7 |
| 20260507060100 | 4 | 5 | 0.0 | 0.0 | 0.03 | 2.59 | 0.03 | 96 | 1006.1 |
| 20260507054557 | 4 | 5 | 0.0 | 0.0 | 0.03 | 2.72 | 0.03 | 96 | 1006.8 |
| 20260507053057 | 5 | 5 | 0.0 | 0.0 | 0.03 | 2.72 | 0.03 | 96 | 1007.0 |
| 20260507051555 | 5 | 5 | 0.0 | 0.0 | 0.00 | 2.69 | 0.00 | 96 | 1006.8 |
| 20260507050057 | 5 | 5 | 0.0 | 0.0 | 0.00 | 2.69 | 0.00 | 97 | 1007.1 |
| 20260507044552 | 5 | 5 | 0.0 | 0.0 | 0.00 | 3.17 | 0.00 | 97 | 1007.0 |
| 20260507043050 | 5 | 5 | 0.0 | 0.0 | 0.00 | 3.17 | 0.00 | 97 | 1006.9 |
| 20260507041548 | 5 | 5 | 0.0 | 0.0 | 0.00 | 3.17 | 0.00 | 97 | 1007.3 |
| 20260507040044 | 5 | 5 | 0.0 | 0.0 | 0.00 | 3.17 | 0.00 | 97 | 1007.3 |
| 20260507034600 | 5 | 5 | 0.0 | 0.0 | 0.03 | 3.17 | 3.17 | 97 | 1006.9 |
| 20260507033100 | 5 | 5 | 0.0 | 0.0 | 0.05 | 3.17 | 3.17 | 96 | 1007.1 |
| 20260507031542 | 5 | 5 | 0.0 | 0.0 | 0.08 | 3.17 | 3.17 | 96 | 1007.2 |
| 20260507030041 | 5 | 340 | 0.0 | 0.0 | 0.10 | 3.17 | 3.17 | 97 | 1007.0 |
| 20260507024551 | 5 | 340 | 0.0 | 0.0 | 0.10 | 3.15 | 3.15 | 96 | 1007.7 |
| 20260507023039 | 5 | 340 | 0.0 | 0.0 | 0.08 | 3.12 | 3.12 | 96 | 1007.8 |
| 20260507021539 | 5 | 340 | 0.0 | 0.0 | 0.13 | 3.10 | 3.10 | 96 | 1007.6 |
| 20260507020037 | 6 | 327 | 0.0 | 0.0 | 0.13 | 3.07 | 3.07 | 96 | 1007.5 |
| 20260507014535 | 6 | 13 | 0.0 | 0.0 | 0.13 | 3.07 | 3.05 | 96 | 1007.1 |
| 20260507013038 | 6 | 360 | 0.0 | 0.0 | 0.15 | 3.07 | 3.05 | 96 | 1007.1 |
| 20260507011535 | 6 | 360 | 0.0 | 0.0 | 0.08 | 3.00 | 2.97 | 96 | 1007.0 |
| 20260507010038 | 6 | 360 | 0.0 | 0.0 | 0.03 | 2.92 | 2.90 | 96 | 1006.8 |
| 20260507004532 | 6 | 360 | 0.0 | 0.0 | 0.05 | 2.92 | 2.90 | 96 | 1006.4 |
| 20260507003032 | 6 | 355 | 0.0 | 0.0 | 0.05 | 2.90 | 2.87 | 96 | 1006.5 |
| 20260507001544 | 6 | 355 | 0.0 | 0.0 | 0.05 | 2.90 | 2.87 | 96 | 1006.1 |
| 20260507000031 | 6 | 5 | 0.0 | 0.0 | 0.03 | 2.87 | 2.84 | 96 | 1005.7 |
| 20260506234545 | 6 | 339 | 0.0 | 0.0 | 0.03 | 2.87 | 2.84 | 96 | 1006.1 |
| 20260506233029 | 6 | 339 | 0.0 | 0.0 | 0.00 | 2.84 | 2.84 | 95 | 1005.7 |
| 20260506231534 | 6 | 300 | 0.0 | 0.0 | 0.00 | 2.84 | 2.84 | 95 | 1005.7 |
| 20260506230027 | 6 | 248 | 0.0 | 8.0 | 0.00 | 2.84 | 2.84 | 95 | 1005.4 |
| 20260506224529 | 6 | 15 | 0.0 | 0.0 | 0.08 | 2.84 | 2.84 | 95 | 1005.4 |
| 20260506223024 | 6 | 332 | 0.0 | 4.8 | 0.15 | 2.84 | 2.84 | 95 | 1005.1 |
| 20260506221524 | 7 | 334 | 0.0 | 0.0 | 0.23 | 2.84 | 2.84 | 95 | 1004.9 |
| 20260506220032 | 7 | 306 | 0.0 | 0.0 | 0.28 | 2.84 | 2.84 | 96 | 1005.0 |
| 20260506214522 | 7 | 355 | 0.0 | 0.0 | 0.23 | 2.82 | 2.77 | 96 | 1005.1 |
| 20260506213021 | 7 | 360 | 0.0 | 0.0 | 0.18 | 2.74 | 2.69 | 94 | 1005.0 |
| 20260506211521 | 7 | 5 | 0.0 | 3.2 | 0.13 | 2.67 | 2.62 | 94 | 1005.2 |
| 20260506210017 | 8 | 332 | 0.0 | 0.0 | 0.08 | 2.62 | 2.57 | 95 | 1004.8 |
| 20260506204515 | 8 | 338 | 0.0 | 0.0 | 0.05 | 2.97 | 2.54 | 96 | 1004.7 |
| 20260506203015 | 8 | 355 | 0.0 | 0.0 | 0.05 | 2.92 | 2.51 | 96 | 1004.4 |
| 20260506201516 | 8 | 40 | 0.0 | 0.0 | 0.03 | 2.90 | 2.49 | 95 | 1004.3 |
| 20260506200013 | 8 | 11 | 0.0 | 0.0 | 0.05 | 2.90 | 2.49 | 96 | 1004.3 |
| 20260506194513 | 8 | 51 | 0.0 | 0.0 | 0.05 | 2.90 | 2.49 | 96 | 1004.4 |
| 20260506193012 | 8 | 22 | 0.0 | 0.0 | 0.05 | 2.87 | 2.46 | 97 | 1004.6 |